Погода в Великой Рублевке

Украина / Полтавская область     49°53′54″N   34°48′03″E
темп.,
°C
ветер,
м/с
пор.,
м/с
влажн.,
%
обл.,
%
осадки,
мм/ч
давл.,
гПа
погр.,
м
11 апреля, вс
вс1100:00+6с22564 0.0 102720
03:00+5с33590 0.0 102730
06:00+4ссв33640 0.0 102838
09:00+9св46490 0.0 1029416
12:00+12св56365 0.0 10281310
15:00+14св56305 0.0 10271459
18:00+13св5838100 0.0 1026607
21:00+9ссв4105398 0.0 1026216
12 апреля, пн
пн1200:00+7ссв386267 0.0 1026170
03:00+7ссв41063100 0.0 1025282
06:00+7св51068100 0.0 1024350
09:00+9св4874100 0.0 1023309
12:00+14всв5768100 0.0 1022715
15:00+19в5651100 0.0 10201404
18:00+19всв365397 0.0 1019175
21:00+15вюв71360100 0.0 1020723
13 апреля, вт
вт1300:00+14вюв6126298 0.0 1019599
03:00+11ююв498894 0.0 1020246
06:00+10юв379097 0.0 1020216
09:00+13ююв4676100 0.0 1020461
12:00+15ююв5663100 0.0 1020914
15:00+16ююв455999 0.0 10201216
18:00+15ю346375 0.0 1020859
21:00+13ююв2371100 0.0 102081
14 апреля, ср
ср1400:00+12юв1174100 0.0 101915
03:00+12зсз1176100 0.0 101810
06:00+11всв1189100 0.8 101828
09:00+12юв228841 1.3 1018299
12:00+15ююв346199 0.3 10171098
15:00+15юв446585 0.4 1017736
18:00+14юв3573100 1.1 1016261
21:00+12юв4781100 1.6 1016235
15 апреля, чт
чт1500:00+11зюз1290100 1.5 101574
03:00+10в2293100 1.8 101527
06:00+10всв3588100 0.4 1014128
09:00+12юз1178100 0.7 1013294
12:00+12сз1278100 0.5 1012363
15:00+11юз1185100 3.0 1011208
18:00+11ю1289100 1.4 1010142
21:00+9зсз1191100 1.5 101010